This is the latest recevied weather packets stored in our database for station/object KC3DGM. If no packets are shown the sender has not sent any weather packets the latest 10 day(s).
| Time | Temp. | Humidity | Pressure | Rain* | Wind** | Luminosity | Snow |
|---|---|---|---|---|---|---|---|
| 1777755857 | 6.67° C | 61% | 986.6 hPa | 0 mm | - | 117 W/m² | - |
| 1777755554 | 6.67° C | 59% | 986.5 hPa | 0 mm | - | 126 W/m² | - |
| 1777755250 | 6.67° C | 60% | 986.5 hPa | 0 mm | - | 138 W/m² | - |
| 1777754948 | 6.11° C | 60% | 986.4 hPa | 0 mm | - | 87 W/m² | - |
| 1777754644 | 6.11° C | 59% | 986.6 hPa | 0 mm | - | 97 W/m² | - |
| 1777754342 | 6.67° C | 61% | 986.6 hPa | 0 mm | - | 101 W/m² | - |
| 1777754040 | 6.67° C | 58% | 986.5 hPa | 0 mm | - | 106 W/m² | - |
| 1777753735 | 6.67° C | 56% | 986.7 hPa | 0 mm | - | 107 W/m² | - |
| 1777753432 | 6.67° C | 59% | 986.5 hPa | 0 mm | - | 148 W/m² | - |
| 1777753130 | 6.67° C | 60% | 986.9 hPa | 0 mm | - | 186 W/m² | - |
| 1777752826 | 6.67° C | 59% | 987.1 hPa | 0 mm | - | 150 W/m² | - |
| 1777752523 | 6.67° C | 61% | 986.9 hPa | 0 mm | - | 121 W/m² | - |
| 1777752218 | 6.67° C | 65% | 986.6 hPa | 0 mm | - | 128 W/m² | - |
| 1777751917 | 6.67° C | 62% | 986.6 hPa | 0 mm | - | 135 W/m² | - |
| 1777751613 | 6.67° C | 62% | 986.9 hPa | 0 mm | - | 155 W/m² | - |
| 1777751310 | 6.67° C | 61% | 986.9 hPa | 0 mm | - | 207 W/m² | - |
| 1777751007 | 6.67° C | 64% | 987.1 hPa | 0 mm | - | 205 W/m² | - |
| 1777750703 | 6.67° C | 61% | 987.2 hPa | 0 mm | - | 183 W/m² | - |
| 1777750400 | 6.11° C | 63% | 987.2 hPa | 0 mm | - | 192 W/m² | - |
| 1777750095 | 6.11° C | 63% | 987.4 hPa | 0 mm | - | 213 W/m² | - |
| 1777749793 | 6.67° C | 65% | 987.3 hPa | 0 mm | - | 221 W/m² | - |
| 1777749490 | 6.67° C | 64% | 987.3 hPa | 0 mm | - | 227 W/m² | - |
| 1777749188 | 6.67° C | 64% | 987.5 hPa | 0 mm | - | 223 W/m² | - |
| 1777748885 | 6.67° C | 64% | 987.4 hPa | 0 mm | - | 212 W/m² | - |
| 1777748582 | 6.67° C | 64% | 987.5 hPa | 0 mm | - | 180 W/m² | - |
* Rain latest hour (hover to see other rain measurements)
** Current wind speed in m/s (hover to see current wind gust speed)